Temperature
15 13 13 14 14 16 17 18 18 18 19 20 19 19 18 19 19 20 21 21 22 22 22 22 22 22 22 22 22 22 21 21 20 20 20 19 19 18 18 18 18 17 17 17
14 15 15 16 16 16 17 18 18 18 19 20 19 18 17 16 17 18 19 19 20 20 21 21 21 21 21 22 21 21 21 21 20 20 20 19 19 18 18 17 17 17 17 17
16 16 17 17 17 17 17 18 18 19 18 19 19 17 17 17 17 16 16 17 17 18 19 20 21 21 21 21 21 21 21 20 20 20 19 19 18 17 17 16 16 16 16 16
16 16 17 17 17 17 17 18 18 19 18 17 18 17 17 16 16 16 15 15 15 16 17 17 19 19 20 20 21 20 20 20 20 19 19 19 18 17 17 16 16 16 15 15
16 17 17 17 17 17 17 18 19 19 18 17 17 16 16 16 16 16 15 14 15 15 16 16 17 17 18 19 19 20 19 19 19 18 18 18 18 17 17 16 15 15 14 14
16 17 18 17 18 18 18 18 17 14 15 17 17 16 16 16 16 15 15 14 14 14 15 15 16 16 17 18 18 18 18 18 18 17 17 17 17 16 16 15 15 14 14 13
16 17 17 18 19 19 18 16 15 16 15 16 16 16 16 15 15 14 14 13 13 14 14 15 15 15 16 16 17 17 17 17 16 16 16 16 16 15 15 14 14 13 13 13
16 16 18 18 18 17 16 16 15 16 16 15 15 16 15 15 14 13 13 13 13 13 13 14 14 14 15 15 15 15 16 15 15 15 15 15 15 14 14 13 13 12 12 11
16 16 18 18 18 17 17 15 15 15 16 15 15 16 15 14 14 13 12 12 12 12 13 13 13 14 14 14 14 14 14 14 14 14 14 14 13 13 13 12 12 11 11 10
16 16 17 17 17 17 16 15 13 14 15 15 15 16 15 14 14 13 12 12 12 12 12 12 12 13 13 13 13 13 13 13 13 13 13 12 12 12 11 11 10 10 9 9
15 15 16 16 15 15 16 15 13 12 14 14 14 14 15 14 14 13 12 11 11 11 11 11 11 12 12 12 12 12 12 12 12 12 11 11 11 10 10 9 9 8 8 7
14 13 14 16 16 15 15 15 13 14 14 13 13 14 13 13 13 12 11 11 11 11 11 10 11 11 11 11 11 11 11 11 10 10 10 10 9 9 9 8 8 7 7 6
14 13 14 15 15 14 14 14 13 12 11 12 13 14 13 12 12 11 11 11 10 10 10 10 10 10 10 10 9 9 9 9 9 9 9 8 8 7 7 7 6 6 6 6
13 12 13 14 14 14 14 14 14 13 12 13 13 13 13 12 11 10 10 10 10 10 10 9 9 9 9 9 8 8 8 8 8 8 8 7 7 6 6 6 6 6 5 5
12 12 13 13 14 14 13 13 13 13 13 13 13 13 12 12 11 10 10 9 9 9 9 9 8 8 8 8 8 8 7 7 7 7 7 6 6 6 6 5 5 5 5 5
11 12 13 13 13 13 13 12 13 13 13 13 13 12 11 10 10 10 9 9 9 8 8 8 8 8 8 7 7 7 7 7 6 6 6 6 5 5 5 5 5 4 4 4
10 11 11 12 13 13 11 11 12 12 11 12 12 11 10 10 9 9 9 9 8 8 8 8 7 7 7 7 7 6 6 6 6 6 5 5 5 5 5 4 4 4 4 3
10 9 8 10 12 12 12 12 12 11 11 11 11 10 10 9 8 9 9 8 8 8 7 7 7 7 7 6 6 6 6 6 5 5 5 5 4 4 4 4 4 3 3 3
10 10 9 9 10 11 12 12 12 11 10 10 10 9 8 8 8 8 8 8 8 7 7 7 7 7 6 6 6 6 5 5 5 5 4 4 4 4 4 3 3 3 3 3
9 9 9 9 11 11 12 12 12 11 10 10 10 9 9 9 8 7 7 7 7 7 7 6 6 6 6 6 5 5 5 5 5 4 4 4 4 4 3 3 3 3 3 3
10 9 9 9 10 10 11 11 12 11 10 9 9 9 9 8 8 7 7 7 7 6 6 6 6 6 5 5 5 5 5 4 4 4 4 4 4 3 3 3 3 3 3 3
10 10 9 8 10 10 11 11 10 9 9 9 9 9 8 7 7 7 7 6 6 6 6 6 6 5 5 5 5 5 5 4 4 4 4 4 4 3 3 3 3 3 3 3
9 9 8 8 9 9 9 9 10 10 10 9 9 8 8 7 6 6 6 6 6 6 5 5 5 5 5 5 5 5 4 4 4 4 4 4 4 4 4 4 3 3 3 3
10 8 8 8 9 9 9 10 10 10 10 10 9 8 8 7 6 6 6 6 6 5 5 5 5 5 5 4 4 4 4 4 4 4 4 4 4 4 4 4 3 3 3 3
10 8 8 8 9 9 9 10 10 10 10 9 8 8 7 7 6 6 6 6 5 5 5 5 5 5 5 4 4 4 4 4 4 4 4 4 4 4 4 4 4 3 3 2
8 8 8 9 9 9 9 10 10 10 9 9 8 7 7 7 6 6 6 5 5 5 5 5 5 5 5 5 4 4 4 4 4 4 4 4 4 4 4 4 3 3 3 2
Wind_Speed
5 5 4 8 9 7 3 2 5 7 5 2 2 4 7 5 2 5 6 7 9 10 6 5 6 8 9 10 11 13 12 11 11 8 8 6 5 4 2 2 5 7 8 9
5 3 8 6 5 4 4 4 5 7 3 2 1 4 6 8 4 1 2 2 0 1 2 1 3 6 8 9 10 10 11 11 11 8 6 4 5 4 3 3 4 5 7 8
5 6 3 5 4 4 4 5 5 5 7 4 2 5 7 7 9 11 11 9 8 7 4 4 3 2 3 6 7 8 8 10 10 10 8 7 6 4 4 3 3 4 6 7
5 6 4 4 4 5 4 7 6 3 3 4 2 2 4 5 9 12 12 13 12 10 9 8 7 5 3 2 5 7 8 9 10 11 11 12 8 6 4 4 4 5 8 8
5 4 5 6 8 9 8 4 3 2 2 2 2 4 3 2 5 9 11 13 13 12 12 11 11 9 7 4 4 6 8 9 9 9 11 10 8 6 6 7 8 7 7 9
7 4 6 7 6 7 5 3 5 5 4 0 2 5 1 3 3 6 9 12 13 13 13 13 13 12 11 9 8 7 9 8 9 9 9 9 10 10 10 8 8 7 7 8
5 5 5 5 2 0 4 5 4 3 2 2 2 6 3 5 7 8 9 11 12 13 13 14 14 14 13 12 10 9 10 9 9 10 9 10 10 10 10 9 9 9 7 7
2 6 3 4 7 6 6 9 7 5 5 1 4 4 4 7 9 10 10 10 11 13 13 14 14 14 14 14 12 11 11 11 11 11 11 11 11 9 9 10 9 9 9 8
3 5 4 2 3 8 7 5 6 6 3 3 3 4 5 7 8 8 9 10 11 11 13 14 14 14 15 15 14 14 13 13 13 13 14 13 13 12 12 12 11 10 9 9
5 3 5 5 6 5 5 7 6 6 5 3 3 2 2 6 7 6 6 7 8 10 12 13 13 14 14 14 15 16 15 15 15 14 13 13 14 14 13 13 13 12 11 11
2 2 5 6 6 3 4 5 6 5 5 6 4 1 3 6 9 9 7 6 7 9 10 11 12 13 14 15 15 15 15 16 15 15 15 15 15 14 14 13 13 12 12 11
2 4 3 2 2 2 5 4 4 5 3 4 5 2 4 7 8 9 8 7 8 9 10 11 12 13 14 14 15 15 15 15 15 14 15 15 14 14 14 14 12 12 12 11
3 5 3 4 5 7 6 5 4 6 5 5 6 5 4 9 9 9 9 8 8 9 10 11 11 12 13 13 13 14 14 14 14 14 15 15 14 13 13 12 11 11 11 11
5 5 4 4 2 1 5 6 3 5 5 4 5 9 7 8 8 8 8 8 9 9 10 11 11 11 12 13 13 13 13 12 13 14 14 14 12 11 11 11 11 11 10 10
5 5 6 6 6 7 7 8 8 6 4 5 7 8 8 8 8 8 8 9 10 10 11 11 11 11 11 12 12 12 12 12 12 13 13 12 10 10 11 10 10 9 9 9
5 5 4 5 7 9 10 11 8 7 5 8 10 6 6 8 8 8 8 10 10 11 11 12 12 12 11 11 11 11 11 11 11 12 11 10 10 10 9 9 8 8 7 6
3 4 4 1 2 4 7 8 6 5 5 3 4 5 9 9 8 7 7 9 10 11 11 11 11 11 10 9 10 10 9 9 10 10 10 9 9 9 7 7 7 6 5 4
5 4 4 3 4 4 1 2 5 6 6 6 9 9 9 10 9 8 8 10 11 11 11 11 10 9 8 8 9 9 9 9 9 9 8 8 8 7 6 6 6 4 3 3
4 6 5 4 4 2 1 1 0 2 3 4 9 11 11 12 10 8 8 10 11 11 10 9 9 9 8 8 8 9 9 8 8 8 7 6 6 6 6 5 4 2 2 2
7 6 5 4 4 2 2 4 1 4 2 2 7 10 9 5 5 4 7 11 11 11 9 9 8 8 8 7 7 9 8 7 6 5 5 4 5 5 4 3 2 2 1 1
6 6 5 4 3 2 3 5 1 2 2 4 7 8 6 4 5 9 11 11 10 10 9 9 9 7 6 6 7 8 7 6 4 4 5 4 4 4 3 2 2 2 2 2
3 3 2 3 2 2 5 3 3 3 2 6 7 7 9 11 13 12 12 11 10 10 9 8 8 7 5 6 7 8 5 3 4 4 4 3 2 1 2 2 2 2 2 2
3 4 5 4 4 3 3 2 2 4 6 5 7 10 14 14 13 12 10 10 9 9 7 7 8 7 6 5 6 6 3 3 4 4 3 2 1 1 1 1 1 1 1 1
2 3 4 3 1 2 3 4 4 5 6 7 9 12 13 14 13 11 10 9 8 8 7 6 8 7 5 4 4 3 2 3 3 2 1 1 1 2 1 1 1 1 1 0
4 4 4 3 2 3 3 3 5 7 10 11 11 10 11 14 12 10 9 9 8 7 5 6 6 6 4 3 2 2 2 3 2 1 1 1 1 1 1 1 1 0 1 2
4 6 6 6 7 6 5 5 6 9 9 11 12 10 10 11 11 10 9 7 7 6 5 5 5 4 2 2 1 1 1 3 2 0 1 1 1 1 0 1 2 4 2 2
Wind_Direction
115 107 188 208 197 203 226 271 292 277 279 289 272 299 318 323 225 218 205 201 204 209 203 176 175 173 177 180 184 184 180 177 171 174 173 166 162 144 139 131 147 153 157 157
66 226 224 205 189 201 230 275 291 294 307 242 317 9 5 29 27 33 159 166 233 9 30 91 156 163 173 184 186 185 180 174 175 176 165 141 128 120 111 92 89 118 142 147
184 234 200 168 188 195 229 223 247 276 333 11 67 19 25 30 44 49 49 52 49 52 49 35 50 92 140 172 178 181 175 170 168 156 136 124 111 106 113 105 90 69 92 108
222 242 198 194 216 179 258 236 223 260 352 314 50 59 3 27 46 46 45 44 41 40 40 37 35 41 52 155 159 157 158 157 155 152 157 155 155 157 149 134 112 86 79 87
240 220 193 211 222 184 219 233 213 254 199 305 19 114 322 23 53 46 45 45 41 39 43 42 39 39 37 46 103 132 135 137 143 150 156 150 140 132 122 115 108 91 75 71
240 231 205 213 225 196 199 63 52 49 86 26 300 126 18 26 52 56 49 46 41 41 42 41 40 41 40 44 65 94 109 114 125 130 132 134 134 131 129 123 115 99 84 74
303 283 232 191 202 146 128 99 35 16 40 241 15 94 77 57 68 74 62 51 45 44 43 41 38 38 38 43 55 77 93 94 97 103 106 110 118 121 122 118 110 103 92 83
304 305 266 186 185 180 169 146 159 182 194 267 33 93 89 79 76 73 67 58 52 48 46 45 41 41 41 42 48 65 78 81 84 89 89 90 94 95 96 95 99 98 94 88
219 282 301 274 207 147 141 173 164 133 136 90 78 105 111 96 83 73 66 59 52 50 50 49 45 44 45 46 46 56 67 71 72 78 82 81 85 89 91 91 89 89 89 90
194 263 324 334 48 34 125 137 101 113 135 124 106 117 132 143 126 105 84 74 64 59 57 55 52 52 52 53 53 55 61 66 67 70 77 84 84 86 88 88 86 85 82 82
146 141 346 26 32 351 55 70 90 100 128 138 146 190 334 165 149 134 113 90 77 70 67 66 64 61 60 59 60 62 65 69 70 72 76 78 79 81 82 83 83 85 82 80
75 104 45 359 314 4 83 89 123 132 129 121 128 118 23 113 119 121 112 98 86 80 74 71 70 69 67 64 64 65 67 70 72 75 76 77 78 80 80 81 81 84 84 81
81 90 70 3 351 8 41 33 75 107 107 124 134 138 98 105 107 108 111 106 98 91 84 78 73 71 71 71 70 71 71 73 76 79 80 78 77 79 81 81 80 80 82 80
101 69 120 155 218 25 34 16 40 98 116 138 149 142 142 129 124 118 113 109 104 98 94 89 82 77 76 75 75 75 74 75 78 81 82 81 79 79 81 82 82 83 86 86
74 71 69 69 69 79 62 39 39 66 117 147 144 138 148 142 133 125 114 110 106 102 98 95 92 88 84 82 80 79 77 75 78 80 80 80 78 79 80 80 82 84 85 89
58 100 83 66 64 73 56 29 33 45 50 97 109 101 110 110 108 112 113 115 110 106 104 102 98 95 92 90 89 85 82 81 83 85 84 84 83 81 81 83 84 84 83 84
61 100 91 103 312 48 35 360 24 50 33 70 107 118 123 114 109 112 115 114 112 110 108 104 101 99 98 95 96 94 91 89 89 90 91 89 89 88 85 89 86 84 81 78
110 90 96 83 60 73 286 18 76 79 53 64 95 107 110 106 93 85 101 112 109 106 103 101 100 99 95 95 93 95 93 93 93 93 95 96 96 94 90 87 85 80 76 70
98 118 99 95 90 93 267 358 47 103 68 81 112 114 112 112 92 69 75 96 102 103 102 100 100 101 100 99 101 100 96 96 98 100 103 105 106 103 96 91 83 69 65 42
50 71 95 98 112 185 251 317 281 120 110 139 134 134 136 124 112 105 100 100 99 98 99 99 98 97 95 96 102 102 101 99 100 104 108 110 111 109 105 96 78 57 65 28
23 34 64 89 106 269 300 316 53 136 213 154 141 137 124 97 117 122 113 103 101 100 99 99 98 95 97 105 105 103 101 101 105 108 104 103 106 111 111 95 73 67 57 44
118 100 101 109 100 260 328 24 131 174 122 117 122 121 113 114 115 114 111 109 106 103 99 100 99 94 90 101 107 104 103 109 106 105 100 98 94 95 116 113 89 70 73 61
118 170 161 161 190 255 336 57 82 121 114 114 121 126 127 125 123 119 114 111 108 106 101 99 103 96 84 91 108 109 114 111 107 101 93 79 60 43 82 127 129 84 75 72
119 126 106 99 81 42 51 65 66 81 103 115 126 130 131 128 127 121 117 113 109 105 103 105 103 99 92 92 102 120 128 121 119 117 99 7 357 352 18 68 142 152 161 125
166 123 104 112 148 107 63 92 101 96 102 108 111 118 126 127 125 122 120 117 114 109 104 106 109 111 113 114 118 140 139 126 121 115 336 329 326 316 8 47 39 193 215 211
187 164 160 200 195 168 173 150 130 121 121 125 121 115 120 125 124 122 120 120 120 118 116 114 114 118 119 115 127 166 161 150 149 213 296 304 308 305 129 94 52 45 56 61
Height
1488 1495 1499 1496 1495 1495 1494 1494 1496 1490 1481 1482 1483 1484 1480 1476 1477 1478 1480 1482 1484 1485 1490 1494 1497 1500 1503 1507 1510 1513 1516 1520 1523 1526 1529 1533 1537 1540 1543 1545 1547 1548 1550 1552
1492 1494 1489 1487 1490 1492 1493 1495 1493 1487 1480 1480 1483 1485 1481 1480 1479 1479 1479 1481 1483 1486 1489 1492 1495 1497 1500 1503 1506 1509 1512 1515 1519 1523 1525 1529 1533 1537 1540 1543 1544 1545 1546 1548
1489 1488 1483 1486 1489 1491 1492 1493 1490 1488 1483 1480 1483 1489 1487 1484 1483 1483 1483 1483 1484 1486 1487 1489 1492 1494 1497 1500 1502 1505 1508 1511 1516 1519 1523 1526 1529 1533 1536 1539 1540 1542 1543 1545
1485 1482 1482 1484 1486 1487 1493 1485 1485 1485 1491 1495 1488 1503 1494 1489 1488 1487 1487 1487 1487 1488 1488 1489 1490 1492 1494 1497 1499 1502 1505 1508 1512 1515 1518 1521 1524 1529 1532 1534 1536 1538 1540 1542
1483 1479 1480 1483 1482 1482 1484 1480 1482 1483 1488 1495 1494 1503 1502 1492 1492 1492 1492 1491 1491 1490 1490 1490 1491 1491 1493 1494 1497 1499 1502 1505 1509 1511 1515 1519 1522 1525 1528 1531 1534 1535 1537 1539
1478 1475 1475 1475 1473 1475 1476 1480 1485 1493 1497 1504 1496 1504 1506 1497 1495 1495 1495 1495 1494 1493 1493 1492 1492 1493 1493 1494 1495 1498 1501 1504 1507 1510 1514 1517 1521 1523 1526 1529 1531 1533 1535 1537
1479 1474 1470 1470 1474 1474 1478 1492 1506 1505 1512 1509 1499 1502 1504 1497 1496 1498 1498 1499 1498 1497 1496 1495 1495 1495 1495 1495 1496 1498 1501 1503 1506 1510 1513 1516 1518 1521 1525 1527 1529 1532 1534 1535
1486 1484 1470 1468 1470 1475 1479 1487 1505 1510 1511 1511 1502 1504 1504 1500 1500 1500 1501 1501 1501 1500 1500 1499 1499 1498 1498 1498 1499 1501 1502 1504 1507 1509 1512 1515 1517 1520 1523 1526 1528 1531 1533 1535
1484 1482 1467 1465 1464 1468 1478 1484 1484 1498 1501 1511 1509 1504 1504 1503 1503 1504 1504 1504 1504 1504 1503 1503 1503 1502 1502 1502 1503 1504 1504 1506 1508 1509 1512 1515 1517 1521 1523 1526 1528 1531 1533 1535
1477 1480 1471 1467 1465 1468 1471 1478 1491 1500 1510 1515 1512 1508 1508 1506 1507 1507 1508 1508 1508 1508 1508 1507 1507 1507 1507 1507 1508 1508 1508 1509 1510 1512 1515 1517 1518 1521 1524 1527 1530 1532 1534 1537
1475 1481 1479 1474 1478 1479 1477 1482 1490 1501 1502 1513 1520 1518 1504 1504 1505 1508 1511 1512 1512 1512 1512 1512 1512 1512 1511 1512 1512 1513 1513 1514 1515 1517 1518 1520 1521 1525 1528 1530 1532 1535 1537 1540
1476 1483 1487 1481 1477 1475 1477 1482 1489 1498 1506 1509 1513 1518 1505 1504 1507 1510 1513 1514 1515 1515 1516 1516 1516 1516 1516 1516 1517 1518 1519 1519 1520 1522 1523 1525 1527 1529 1531 1534 1537 1539 1541 1543
1477 1485 1494 1491 1489 1483 1483 1485 1488 1495 1504 1510 1513 1516 1508 1508 1511 1513 1515 1517 1518 1519 1519 1520 1520 1520 1520 1521 1522 1523 1524 1525 1526 1527 1528 1530 1533 1534 1536 1538 1541 1543 1545 1546
1476 1488 1494 1498 1496 1491 1491 1489 1488 1493 1504 1507 1505 1507 1509 1510 1513 1515 1517 1518 1520 1521 1522 1523 1523 1524 1525 1525 1527 1528 1529 1530 1531 1532 1533 1535 1538 1540 1541 1543 1545 1546 1548 1549
1479 1493 1493 1493 1491 1491 1494 1494 1493 1494 1497 1501 1503 1504 1508 1511 1514 1516 1518 1520 1522 1524 1525 1526 1527 1528 1529 1530 1531 1533 1534 1535 1537 1538 1539 1541 1543 1545 1546 1547 1548 1549 1550 1550
1486 1494 1495 1498 1496 1495 1498 1499 1498 1498 1498 1500 1503 1509 1510 1513 1516 1518 1520 1522 1524 1526 1528 1529 1531 1532 1533 1534 1536 1537 1538 1540 1542 1543 1544 1546 1548 1549 1550 1550 1551 1551 1552 1552
1492 1495 1502 1505 1499 1498 1509 1507 1505 1505 1505 1504 1507 1511 1513 1516 1518 1521 1523 1524 1526 1528 1530 1532 1533 1535 1537 1538 1540 1541 1543 1545 1546 1547 1549 1550 1551 1552 1553 1553 1554 1554 1554 1554
1493 1500 1508 1509 1506 1515 1515 1506 1506 1508 1509 1508 1509 1512 1515 1518 1521 1523 1525 1526 1529 1531 1533 1535 1537 1539 1541 1542 1543 1545 1547 1548 1550 1551 1552 1553 1554 1555 1556 1556 1556 1556 1556 1556
1491 1498 1508 1514 1516 1515 1510 1507 1508 1509 1513 1512 1513 1516 1519 1521 1523 1527 1528 1529 1531 1533 1536 1538 1540 1542 1544 1545 1547 1548 1550 1551 1553 1554 1555 1556 1557 1557 1558 1558 1558 1558 1557 1557
1495 1498 1508 1514 1516 1519 1513 1507 1506 1510 1515 1515 1515 1517 1520 1522 1526 1531 1532 1533 1535 1537 1539 1541 1543 1545 1547 1548 1550 1551 1553 1554 1556 1557 1558 1559 1559 1559 1559 1560 1559 1559 1558 1558
1504 1507 1513 1516 1517 1515 1510 1507 1507 1515 1516 1514 1515 1518 1521 1523 1527 1531 1533 1536 1538 1540 1542 1544 1546 1547 1549 1551 1552 1554 1555 1557 1558 1559 1560 1561 1561 1561 1561 1561 1561 1560 1559 1558
1508 1512 1515 1518 1519 1519 1509 1507 1510 1513 1512 1513 1516 1519 1522 1525 1528 1532 1535 1538 1540 1542 1545 1547 1548 1550 1552 1554 1555 1556 1558 1559 1561 1562 1562 1562 1563 1563 1562 1562 1561 1560 1559 1557
1508 1510 1512 1515 1518 1513 1510 1510 1510 1511 1512 1515 1517 1520 1523 1526 1530 1534 1537 1540 1543 1545 1547 1549 1551 1552 1554 1556 1558 1559 1560 1561 1562 1563 1563 1564 1563 1563 1563 1562 1561 1560 1558 1556
1506 1507 1510 1512 1512 1512 1512 1512 1512 1513 1514 1516 1519 1521 1524 1528 1532 1536 1539 1542 1545 1548 1550 1552 1553 1555 1556 1558 1560 1561 1562 1563 1564 1564 1564 1564 1564 1563 1562 1561 1560 1559 1557 1555
1504 1506 1510 1512 1512 1512 1513 1513 1514 1515 1517 1519 1521 1524 1527 1530 1534 1538 1541 1545 1547 1550 1552 1554 1556 1557 1559 1560 1562 1563 1563 1564 1564 1564 1564 1564 1563 1563 1562 1561 1559 1558 1556 1554
1502 1504 1507 1509 1507 1509 1512 1514 1516 1517 1519 1521 1523 1527 1531 1534 1537 1540 1544 1547 1550 1552 1555 1557 1559 1560 1561 1562 1563 1564 1564 1564 1565 1564 1564 1564 1563 1562 1561 1560 1559 1557 1556 1554